EN

Hourly Weather Abreu e Lima

Today, 5 December, Saturday

Time Temperature Precipitation Wind Pressure Humidity
00:00 +28°C° 0.1 mm 4 mps 758 mmHg 78%
01:00 +28°C° 0.1 mm 4 mps 757 mmHg 78%
02:00 +28°C° 0.1 mm 4 mps 757 mmHg 79%
03:00 +27°C° 0.1 mm 4 mps 757 mmHg 80%
04:00 +27°C° 0 mm 4 mps 757 mmHg 80%
05:00 +27°C° 0.1 mm 4 mps 757 mmHg 79%
06:00 +27°C° 0.1 mm 4 mps 757 mmHg 78%
07:00 +28°C° 0.1 mm 4 mps 758 mmHg 76%
08:00 +29°C° 0.1 mm 5 mps 758 mmHg 72%
09:00 +30°C° 0.1 mm 5 mps 758 mmHg 67%
10:00 +32°C° 0.1 mm 5 mps 758 mmHg 62%
11:00 +32°C° 0 mm 5 mps 758 mmHg 60%
12:00 +32°C° 0 mm 5 mps 758 mmHg 58%
13:00 +33°C° 0 mm 5 mps 758 mmHg 56%
14:00 +32°C° 0 mm 5 mps 758 mmHg 58%
15:00 +32°C° 0 mm 5 mps 757 mmHg 59%
16:00 +30°C° 0 mm 4 mps 757 mmHg 61%
17:00 +30°C° 0 mm 4 mps 757 mmHg 64%
18:00 +29°C° 0 mm 4 mps 757 mmHg 68%
19:00 +28°C° 0 mm 4 mps 757 mmHg 72%
20:00 +27°C° 0 mm 4 mps 757 mmHg 73%
21:00 +27°C° 0 mm 4 mps 758 mmHg 75%
22:00 +27°C° 0 mm 4 mps 758 mmHg 77%
23:00 +27°C° 0 mm 3 mps 758 mmHg 78%

Tomorrow, 6 December, Sunday

Time Temperature Precipitation Wind Pressure Humidity
00:00 +27°C° 0 mm 3 mps 758 mmHg 78%
01:00 +27°C° 0 mm 3 mps 757 mmHg 78%
02:00 +27°C° 0.1 mm 3 mps 757 mmHg 79%
03:00 +26°C° 0.1 mm 3 mps 757 mmHg 80%
04:00 +26°C° 0.1 mm 3 mps 757 mmHg 80%
05:00 +27°C° 0 mm 3 mps 757 mmHg 79%
06:00 +27°C° 0 mm 3 mps 757 mmHg 78%
07:00 +27°C° 0 mm 3 mps 757 mmHg 76%
08:00 +28°C° 0 mm 3 mps 758 mmHg 71%
09:00 +29°C° 0 mm 4 mps 758 mmHg 66%
10:00 +32°C° 0 mm 4 mps 759 mmHg 61%
11:00 +32°C° 0 mm 4 mps 758 mmHg 61%
12:00 +32°C° 0 mm 4 mps 758 mmHg 60%
13:00 +32°C° 0 mm 5 mps 757 mmHg 60%
14:00 +32°C° 0 mm 4 mps 757 mmHg 60%
15:00 +32°C° 0 mm 4 mps 756 mmHg 60%
16:00 +32°C° 0 mm 4 mps 756 mmHg 60%
17:00 +30°C° 0.1 mm 4 mps 756 mmHg 66%
18:00 +29°C° 0.1 mm 4 mps 757 mmHg 72%
19:00 +28°C° 0.1 mm 4 mps 757 mmHg 78%
20:00 +28°C° 0.1 mm 4 mps 757 mmHg 79%
21:00 +27°C° 0.1 mm 4 mps 758 mmHg 80%
22:00 +27°C° 0.1 mm 4 mps 758 mmHg 81%
23:00 +27°C° 0 mm 4 mps 758 mmHg 82%

Day after tomorrow, 7 December, Monday

Time Temperature Precipitation Wind Pressure Humidity
00:00 +27°C° 0 mm 3 mps 758 mmHg 83%
01:00 +26°C° 0 mm 3 mps 757 mmHg 84%
02:00 +26°C° 0 mm 3 mps 757 mmHg 84%
03:00 +26°C° 0 mm 3 mps 757 mmHg 84%
04:00 +26°C° 0 mm 3 mps 757 mmHg 84%
05:00 +26°C° 0 mm 3 mps 757 mmHg 83%
06:00 +27°C° 0 mm 3 mps 757 mmHg 81%
07:00 +27°C° 0 mm 4 mps 758 mmHg 80%
08:00 +28°C° 0.1 mm 4 mps 758 mmHg 74%
09:00 +29°C° 0.1 mm 4 mps 758 mmHg 69%
10:00 +30°C° 0.1 mm 5 mps 759 mmHg 63%
11:00 +32°C° 0.1 mm 5 mps 758 mmHg 62%
12:00 +32°C° 0.1 mm 5 mps 758 mmHg 60%
13:00 +33°C° 0.1 mm 5 mps 757 mmHg 59%
14:00 +32°C° 0 mm 5 mps 757 mmHg 59%
15:00 +32°C° 0 mm 4 mps 757 mmHg 59%
16:00 +32°C° 0 mm 4 mps 756 mmHg 59%
17:00 +30°C° 0 mm 4 mps 757 mmHg 64%
18:00 +29°C° 0 mm 4 mps 757 mmHg 69%
19:00 +28°C° 0 mm 4 mps 757 mmHg 74%
20:00 +28°C° 0 mm 4 mps 758 mmHg 76%
21:00 +28°C° 0 mm 4 mps 758 mmHg 77%
22:00 +27°C° 0 mm 4 mps 758 mmHg 79%
23:00 +27°C° 0 mm 4 mps 758 mmHg 79%

8 December, Tuesday

Time Temperature Precipitation Wind Pressure Humidity
00:00 +27°C° 0 mm 4 mps 757 mmHg 80%
01:00 +27°C° 0 mm 3 mps 757 mmHg 81%
02:00 +27°C° 0 mm 3 mps 757 mmHg 82%
03:00 +26°C° 0 mm 3 mps 757 mmHg 83%
04:00 +26°C° 0 mm 3 mps 756 mmHg 84%
05:00 +27°C° 0 mm 3 mps 757 mmHg 83%
06:00 +27°C° 0 mm 3 mps 757 mmHg 82%
07:00 +27°C° 0 mm 3 mps 758 mmHg 81%
08:00 +28°C° 0.1 mm 4 mps 758 mmHg 75%
09:00 +29°C° 0.1 mm 4 mps 759 mmHg 70%
10:00 +32°C° 0.1 mm 5 mps 759 mmHg 64%
11:00 +32°C° 0.1 mm 5 mps 758 mmHg 63%
12:00 +32°C° 0.1 mm 5 mps 758 mmHg 62%
13:00 +32°C° 0.1 mm 5 mps 758 mmHg 60%
14:00 +32°C° 0 mm 5 mps 757 mmHg 61%
15:00 +32°C° 0 mm 4 mps 757 mmHg 61%
16:00 +32°C° 0 mm 4 mps 757 mmHg 61%
17:00 +30°C° 0 mm 4 mps 757 mmHg 65%
18:00 +29°C° 0 mm 3 mps 757 mmHg 69%
19:00 +28°C° 0 mm 3 mps 758 mmHg 72%
20:00 +28°C° 0 mm 3 mps 758 mmHg 75%
21:00 +27°C° 0 mm 3 mps 758 mmHg 77%
22:00 +27°C° 0 mm 3 mps 758 mmHg 80%
23:00 +27°C° 0.1 mm 3 mps 758 mmHg 80%

9 December, Wednesday

Time Temperature Precipitation Wind Pressure Humidity
00:00 +27°C° 0.1 mm 3 mps 758 mmHg 81%
01:00 +27°C° 0.1 mm 3 mps 757 mmHg 81%
02:00 +27°C° 0 mm 3 mps 757 mmHg 82%
03:00 +26°C° 0 mm 3 mps 757 mmHg 82%
04:00 +26°C° 0 mm 2 mps 757 mmHg 83%
05:00 +26°C° 0.1 mm 3 mps 757 mmHg 82%
06:00 +27°C° 0.1 mm 3 mps 757 mmHg 81%
07:00 +27°C° 0.1 mm 3 mps 758 mmHg 79%
08:00 +28°C° 0 mm 4 mps 758 mmHg 73%
09:00 +30°C° 0 mm 4 mps 758 mmHg 67%
10:00 +32°C° 0 mm 5 mps 759 mmHg 61%
11:00 +32°C° 0 mm 5 mps 758 mmHg 60%
12:00 +32°C° 0 mm 5 mps 758 mmHg 59%
13:00 +33°C° 0 mm 5 mps 758 mmHg 57%
14:00 +32°C° 0 mm 4 mps 757 mmHg 58%
15:00 +32°C° 0 mm 4 mps 757 mmHg 59%
16:00 +32°C° 0 mm 4 mps 757 mmHg 61%
17:00 +30°C° 0 mm 4 mps 757 mmHg 65%
18:00 +29°C° 0 mm 4 mps 758 mmHg 70%
19:00 +28°C° 0 mm 3 mps 758 mmHg 75%
20:00 +28°C° 0 mm 3 mps 758 mmHg 77%
21:00 +27°C° 0 mm 3 mps 758 mmHg 80%
22:00 +27°C° 0 mm 3 mps 758 mmHg 82%
23:00 +27°C° 0.1 mm 3 mps 758 mmHg 83%

10 December, Thursday

Time Temperature Precipitation Wind Pressure Humidity
00:00 +27°C° 0.1 mm 3 mps 757 mmHg 83%
01:00 +27°C° 0.1 mm 3 mps 757 mmHg 84%
02:00 +27°C° 0.2 mm 3 mps 757 mmHg 85%
03:00 +27°C° 0.2 mm 3 mps 756 mmHg 85%
04:00 +27°C° 0.2 mm 3 mps 756 mmHg 86%
05:00 +27°C° 0.2 mm 3 mps 756 mmHg 85%
06:00 +27°C° 0.2 mm 3 mps 757 mmHg 83%
07:00 +28°C° 0.2 mm 3 mps 757 mmHg 82%
08:00 +29°C° 0.1 mm 4 mps 757 mmHg 76%
09:00 +30°C° 0.1 mm 4 mps 758 mmHg 70%
10:00 +32°C° 0.1 mm 4 mps 758 mmHg 65%
11:00 +32°C° 0 mm 4 mps 758 mmHg 62%
12:00 +33°C° 0 mm 4 mps 757 mmHg 59%
13:00 +33°C° 0 mm 4 mps 757 mmHg 56%
14:00 +33°C° 0 mm 4 mps 756 mmHg 58%
15:00 +33°C° 0 mm 4 mps 756 mmHg 59%
16:00 +32°C° 0 mm 5 mps 755 mmHg 61%
17:00 +32°C° 0 mm 4 mps 756 mmHg 66%
18:00 +30°C° 0 mm 4 mps 756 mmHg 71%
19:00 +29°C° 0 mm 4 mps 756 mmHg 76%
20:00 +29°C° 0 mm 4 mps 757 mmHg 77%
21:00 +28°C° 0 mm 4 mps 757 mmHg 78%
22:00 +28°C° 0 mm 4 mps 757 mmHg 79%
23:00 +28°C° 0.1 mm 4 mps 757 mmHg 80%
Show more